Regional Weather Roundup
Issued by NWS

Home | Current Version | Previous Version | Text Only | Print | Product List | Glossary On
Versions: 1 2 3 4 5 6 7 8 9 10 11 12 13 14 15 16 17 18 19 20 21 22 23 24 25 26 27 28 29 30 31 32 33 34 35 36 37 38 39 40 41 42 43 44 45 46 47 48 49 50
000
ASUS43 KMKX 270421
RWRWI

WISCONSIN REGIONAL WEATHER ROUNDUP
NATIONAL WEATHER SERVICE MILWAUKEE/SULLIVAN WI
1100 PM CDT FRI MAY 26 2017

NOTE: "FAIR" INDICATES FEW OR NO CLOUDS BELOW 12,000 FEET WITH NO
SIGNIFICANT WEATHER AND/OR OBSTRUCTIONS TO VISIBILITY.

WIZ001-002-006>008-014>016-023>028-270500-
NORTHWEST WISCONSIN

CITY           SKY/WX    TMP DP  RH WIND       PRES   REMARKS
SUPERIOR ARPT  NOT AVBL
ASHLAND        MOCLDY    58  55  90 S5        29.79F
HAYWARD        CLOUDY    58  56  93 CALM      29.81R
SIREN          CLEAR     58  56  95 CALM      29.81R
CUMBERLAND     PTCLDY    61  55  82 CALM      29.82R
RICE LAKE      PTCLDY    61  59  92 E5        29.83R
CHETEK         MOCLDY    61  60  97 SE3       29.82R
LADYSMITH      LGT RAIN  60  56  87 NW6       29.85R
EAU CLAIRE     CLEAR     64  56  75 S8        29.81R
MENOMONIE      PTCLDY    64  57  78 S3        29.82R
NEW RICHMOND   MOCLDY    62  50  65 W3        29.82R
OSCEOLA        CLEAR     59  51  74 CALM      29.84R
$$

WIZ003>005-009-010-017-018-270500-
NORTH CENTRAL WISCONSIN

CITY           SKY/WX    TMP DP  RH WIND       PRES   REMARKS
MANITOWISH WTR MOCLDY    56  56 100 CALM      29.83R
ARBOR VITAE    CLOUDY    58  56  92 S3        29.82F
WOODRUFF       CLOUDY    58  56  92 S3        29.82F
RHINELANDER    CLOUDY    58  55  90 S5        29.85S
EAGLE RIVER    CLOUDY    58  54  85 S5        29.84S
LAND O LAKES   MOCLDY    58  56  92 SE3       29.86S
PHILLIPS       PTCLDY    55  55  99 CALM      29.82S
TOMAHAWK       PTCLDY    53  52  96 CALM      29.85S
MEDFORD        CLEAR     57  53  86 S6        29.84S
MERRILL        CLEAR     59  55  85 S3        29.86R
$$

WIZ029-030-035-036-043>047-270500-
CENTRAL WISCONSIN

CITY           SKY/WX    TMP DP  RH WIND       PRES   REMARKS
WAUSAU         CLEAR     59  53  80 CALM      29.84R
MOSINEE        CLEAR     54  52  94 S6        29.86F
MARSHFIELD     CLEAR     56  52  86 S6        29.85R
STEVENS POINT  CLEAR     56  52  87 S3        29.87R
WAUPACA        PTCLDY    59  54  82 S3        29.87R
WAUTOMA        CLEAR     58  54  86 SW3       29.87R
WISC RAPIDS    CLEAR     57  53  86 S6        29.87R
CAMP DOUGLAS   CLEAR     53  52  99 SE5       29.86R
$$

WIZ011>013-019>022-031-037>040-048>050-270500-
NORTHEAST WISCONSIN

CITY           SKY/WX    TMP DP  RH WIND       PRES   REMARKS
ANTIGO         CLEAR     55  53  94 S5        29.86S
SHAWANO        CLEAR     62  54  76 CALM      29.86R
OCONTO         PTCLDY    58  54  86 SE5       29.85F
STURGEON BAY   CLOUDY    56  51  84 S3        29.88R
GREEN BAY      MOCLDY    59  57  93 S5        29.86S
MANITOWOC      MOCLDY    53  51  93 E3        29.87S
APPLETON       PTCLDY    57  52  82 S3        29.85R
CLINTONVILLE   CLEAR     59  52  77 S5        29.86R
OSHKOSH        CLEAR     58  53  84 S5        29.86S
$$

WIZ032>034-041-042-053>061-270500-
SOUTHWEST WISCONSIN

CITY           SKY/WX    TMP DP  RH WIND       PRES   REMARKS
LA CROSSE      CLEAR     63  57  81 S6        29.83R
SPARTA         CLEAR     55  54  95 CALM      29.86R
VIROQUA        CLEAR     58  56  91 MISG      29.87R
BOSCOBEL       FOG       54  53  97 CALM      29.87R VSB 3/4
PRAIRIE DU CHI CLEAR     57  55  94 CALM      29.86R
PLATTEVILLE    CLEAR     58  58  97 E3        29.88R
$$

WIZ056-057-062-063-064-067-068-270500-
SOUTH CENTRAL WISCONSIN

CITY           SKY/WX    TMP DP  RH WIND       PRES   REMARKS
REEDSBURG      CLEAR     55  55 100 CALM      29.87S
BARABOO/DELLS  CLEAR     55  52  90 CALM      29.88R
LONE ROCK      MOCLDY    55  52  89 CALM      29.88R FOG
MINERAL POINT  CLEAR     57  57 100 SE3       29.88R
MADISON        PTCLDY    55  52  89 CALM      29.87R
MIDDLETON      CLEAR     54  54 100 CALM      29.88S
WATERTOWN      CLEAR     52  52 100 CALM      29.88R
MONROE         CLEAR     55  54  94 E5        29.86S
JANESVILLE     CLEAR     55  54  94 E3        29.87S
$$

WIZ051-052-058>065-066-070>072-270500-
SOUTHEAST WISCONSIN

CITY           SKY/WX    TMP DP  RH WIND       PRES   REMARKS
MILWAUKEE      PTCLDY    53  51  93 CALM      29.87F
WAUKESHA       CLEAR     52  52 100 CALM      29.89S FOG
MILWAUKEE/TIMM   N/A     52  50  93 CALM      29.88F FOG
RACINE         CLEAR     50  48  93 N3        29.89R
KENOSHA        CLEAR     52  51  97 N3        29.87S
FOND DU LAC    CLEAR     57  51  80 S5        29.87S
SHEBOYGAN      CLEAR     53  53 100 S3        29.87S
WEST BEND      CLEAR     52  52 100 CALM      29.88S
JUNEAU         CLEAR     55  52  91 CALM      29.88F
$$

LSZ147-162-270500-
LAKE SUPERIOR

STATION/POSITION TIME  TEMP    WIND        PRES    WAVE
                       AIR SEA DIR/SP/G            HT/PER
                 (UTC) (F)     (DEG/KT/KT) (MB)    (FT/S)
W MID LAKE BUOY  0350   43 37   40/  8/  8 1008.7R   0
DEVILS ISLAND    0400   51     260/  2/  4 1008.0F
PORT WING        0340   45     260/  1/  3 1008.8R
SAXON HARBOR     0340   60      50/  3/  4 1008.5R
$$

LMZ867-665-643>646-270500-
LAKE MICHIGAN

STATION/POSITION TIME  TEMP    WIND        PRES    WAVE
                       AIR SEA DIR/SP/G            HT/PER
                 (UTC) (F)     (DEG/KT/KT) (MB)    (FT/S)
CHAMBERS ISLAND  0340   57      CALM  /  2 1010.8S
N MID LAKE BUOY  0350   44 42  140/  2/  4 1012.8R   0
NORTHPORT PIER   0340   51     310/  2/  5 1011.5R
KEWAUNEE LAKESHO 0354   51     130/  3/  4 1011.3R
SHEBOYGAN LAKESH 0400   56     180/  5/  5 1011.5F
PORT WASHINGTON  0330   54      CALM  /  1 1012.5S
ATWATER BUOY     0309   48      30/  2/  2 1011.8R
MILWAUKEE LAKESH 0400   49     330/  2/  2   N/A
S MID LAKE BUOY  0350   49 46   50/  6/  6 1011.5F   0
KENOSHA   LAKESH 0400   52     340/  3/  6 1011.9
$$

TC  - TEMPERATURE IN CELSIUS
VSB - VISIBILITY IN STATUTE MILES
WCI - WIND CHILL INDEX
HX  - HEAT INDEX




USA.gov is the U.S. government's official web portal to all federal, state and local government web resources and services.